Other Public Products
Issued by NWS Grand Forks, ND

Home | Current Version | Previous Version | Text Only | Print | Product List | Glossary Off
Versions: 1 2 3 4 5 6 7 8 9 10 11 12 13 14 15 16 17 18 19 20 21 22 23 24 25 26 27 28 29 30 31 32 33 34 35 36 37 38 39 40 41 42 43 44 45 46 47 48 49 50

000
FPUS83 KFGF 282110
OPUFGF
PRAIRIE TO PINES WEATHER ROUNDUP
NATIONAL WEATHER SERVICE EASTERN NORTH DAKOTA/GRAND FORKS ND
400 PM CDT SUN AUG 28 2016

 **SATELLITE DATA USED TO AUGMENT SKY COVER AT AUTOMATED STATIONS**
 *****  WEATHER ACROSS EASTERN NORTH DAKOTA  *****

CITY           SKY/WX    TMP DP  RH WIND       PRES   REMARKS
GRAND FORKS    MOSUNNY   82  67  60 SE17G24   29.94S
GRAND FORKS AF MOSUNNY   81  68  64 S10G17    29.95S
GRAND CITY NWS   N/A     79 N/A N/A SE15        N/A
BUXTON           N/A     82  73  73 SE20        N/A
DEVILS LAKE    SUNNY     79  68  69 SE13      29.93F
FARGO          SUNNY     87  69  54 S18       29.93F HX  91
WAHPETON ARPT  CLEAR     88  66  48 S16G24    29.95F HX  90
$$

 *****  WEATHER ACROSS CENTRAL AND WESTERN NORTH DAKOTA  *****

CITY           SKY/WX    TMP DP  RH WIND       PRES   REMARKS
JAMESTOWN      MOSUNNY   84  71  65 S16       29.92R
BISMARCK       SUNNY     88  65  46 VRB3      29.89F HX  90
MINOT          SUNNY     92  52  25 S9G20     29.86S
MINOT AFB      SUNNY     93  51  24 S9        29.84S HX  90
GARRISON         N/A     90  62  39 S10       29.89S HX  90
WILLISTON      CLOUDY    87  46  24 N13       29.92R
DICKINSON      SUNNY     95  28   9 W13G22    29.90S
HETTINGER      SUNNY     95  41  15 SW7       29.94F HX  91
$$

 *****  OTHER OBSERVATIONS NORTHEAST NORTH DAKOTA  *****

CITY           SKY/WX    TMP DP  RH WIND       PRES   REMARKS
WALHALLA       NOT AVBL
LANGDON        FAIR      84  64  51 S16G24    29.95S
CAVALIER       FAIR      81  66  61 S12G18    29.94S
GRAFTON        FAIR      81  68  65 SE13G22   29.96S
CANDO          NOT AVBL
FORT TOTTEN      N/A     81  68  65 S10       29.95
ROLLA            N/A     82  64  54 S15G22    29.94R
RUGBY          FAIR      86  66  51 SE12G18   29.89S
 ***** THE ABOVE OBSERVATIONS ARE NON NWS ARE NOT QUALITY
        CONTROLLED AND MAY MIS-REPORT RAIN FOR SNOW...
$$

 *****  OTHER OBSERVATIONS SOUTHEAST NORTH DAKOTA *****

CITY           SKY/WX    TMP DP  RH WIND       PRES   REMARKS
COOPERSTOWN    NOT AVBL
VALLEY CITY    FAIR      86  73  66 S15G21    29.94R HX  93
OAKES            N/A    N/A N/A N/A MISG        N/A
GWINNER        FAIR      88  73  62 S16       29.93F HX  96
SHEYENNE NWR     N/A     86  73  64 S15       29.95S HX  92
BUFFALO          N/A     85  65  52 SE18        N/A
WYNDMERE       NOT AVBL
 ***** THE ABOVE OBSERVATIONS ARE NON NWS ARE NOT QUALITY
       CONTROLLED AND MAY MIS-REPORT RAIN FOR SNOW...
$$

  *****  WEATHER ACROSS NORTHERN MINNESOTA  *****

CITY           SKY/WX    TMP DP  RH WIND       PRES   REMARKS
FLAG ISLAND    MOSUNNY   70  63  78 CALM      30.05F
WARROAD        SUNNY     75  68  78 E8        30.04S
ROSEAU         SUNNY     81  64  57 SE13      30.02S
HALLOCK        SUNNY     81  64  57 SE14      29.95S
THF RVR FALLS  SUNNY     80  64  58 SE13G22   30.00F
HALSTAD          N/A     84  72  67 S14         N/A
FOSSTON        MOSUNNY   81  70  69 SE10G20   30.02S
BAUDETTE       SUNNY     75  64  68 SE12      30.06F
WASKISH          N/A     75  64  69 SE6       30.07S
CROOKSTON      SUNNY     81  66  61 S18G24    29.97F
$$
  *****  WEATHER ACROSS CENTRAL AND WEST MINNESOTA  *****

CITY           SKY/WX    TMP DP  RH WIND       PRES   REMARKS
BEMIDJI        CLOUDY    77  64  64 SE12      30.05F
PARK RAPIDS    MOSUNNY   82  63  52 S16       30.05F
WADENA         MOSUNNY   81  66  61 SE10G17   30.05S
DETROIT LAKES  SUNNY     81  64  57 SE15G21   30.02F
MOORHEAD       SUNNY     86  70  58 SE18      29.94F HX  90
FERGUS FALLS   SUNNY     84  72  65 S20       29.98F
ELBOW LAKE     FAIR      85  73  65 SE18      30.00F HAZE    HX  91
MORRIS MN      SUNNY     88  72  58 S17G23    29.99F HX  94
STAPLES        MOSUNNY   79  66  65 S8G18     30.06F
WHEATON        SUNNY     88  75  66 SE16G23   29.97F HX  97
$$
  *****  WEATHER ELSEWHERE ACROSS MINNESOTA  *****

CITY           SKY/WX    TMP DP  RH WIND       PRES   REMARKS
DULUTH         MOSUNNY   73  63  70 SE9       30.15F
INTRNTL FALLS  MOSUNNY   73  63  70 S8        30.10F
ELY            SUNNY     73  61  64 S3        30.15F
CLOQUET        MOSUNNY   73  61  64 SE8       30.14F
BRAINERD       PTSUNNY   80  68  66 S13       30.09S
HIBBING        MOSUNNY   74  62  66 SE10      30.13F
ALEXANDRIA     SUNNY     84  68  58 S21       30.05F
SAINT CLOUD    MOSUNNY   81  73  76 SE13      30.08F
MINNEAPOLIS    MOSUNNY   84  66  54 S13G21    30.10F
$$

  *****  WEATHER ACROSS SOUTH DAKOTA  *****

CITY           SKY/WX    TMP DP  RH WIND       PRES   REMARKS
SIOUX FALLS    MOSUNNY   88  72  58 S18       30.03F HX  94
BROOKINGS      MOSUNNY   86  73  65 S22       30.02F HX  93
WATERTOWN      SUNNY     87  72  60 SE21G28   29.99F HX  93
HURON          SUNNY     91  69  48 S17G29    29.94S HX  96
SISSETON         N/A     88  75  65 S18G25    29.93F HX  97
ABERDEEN       SUNNY     91  70  49 S21G29    29.91S HX  96
MITCHELL       SUNNY     92  66  42 S17G30    29.96F HX  94
PIERRE         SUNNY     95  61  32 W13       29.88F HX  95
MOBRIDGE       SUNNY     92  58  31 VRB6      29.89S HX  91
RAPID CITY     SUNNY     91  49  23 E8        29.98F
$$

  *****  SOME WEATHER IN NEARBY STATES *****

CITY           SKY/WX    TMP DP  RH WIND       PRES   REMARKS
GLASGOW MT     SUNNY     85  48  27 NW9G18    29.97R
GREAT FALLS MT MOSUNNY   78  43  28 NE9       30.06R
CHEYENNE WY    SUNNY     85  30  13 VRB5      30.19F
SCOTTSBLUFF NE PTSUNNY   88  35  15 CALM      30.06F
OMAHA NE       CLOUDY    89  71  55 S16       30.04F HX  95
DES MOINES IA  CLOUDY    87  72  60 S8        30.08S HX  93
DAVENPORT IA   CLOUDY    86  71  60 E5        30.13S HX  91
CHICAGO IL     MOSUNNY   81  68  64 E10       30.17F
EAU CLAIRE WI  PTSUNNY   81  66  60 S8        30.15F
LA CROSSE WI   PTSUNNY   81  69  67 NE7       30.14F
$$

  *****  SOME NATIONAL WEATHER *****

CITY           SKY/WX    TMP DP  RH WIND       PRES   REMARKS
LA GUARDIA NY  MOSUNNY   86  58  38 S14       30.17F
RALEIGH NC     PTSUNNY   88  65  46 NE12      30.13F HX  90
ATLANTA GA     MOSUNNY   91  67  44 E12       30.07F HX  94
NEW ORLEANS LA CLOUDY    86  76  71 NE13      29.96S HX  96
OKLAHOMA CITY  MOSUNNY   92  65  40 E8G16     30.02F HX  94
ALBUQUERQUE NM CLOUDY    78  41  26 W9        30.21F
SALT LAKE CITY MOSUNNY   90  35  14 SW5       30.13F
LOS ANGELES CA MOSUNNY   74  60  61 W13       29.99F
BOISE ID       SUNNY     85  42  22 NW9       30.09F
SEATTLE WA     PTSUNNY   69  50  50 CALM      30.09F
$$

*** WEATHER ACROSS MANITOBA...SASKATCHEWAN AND ONTARIO ***
                ***ONTARIO***

CITY           SKY/WX    TMP DP  RH WIND       PRES   REMARKS
GERALDTON      MOSUNNY   72  54  53 W6        30.15S
THUNDER BAY    MOSUNNY   73  61  64 S8        30.15S
SIOUX LOOKOUT  PTSUNNY   70  59  68 SE6       30.12F
TORONTO        MOSUNNY   88  64  45 W17       30.11S
BIG TROUT LK   SUNNY     77  55  47 S3        30.05F
PICKLE LAKE    MOSUNNY   72  54  53 S8        30.12F
DRYDEN         SUNNY     72  59  64 SE9       30.12S
KENORA         MOSUNNY   72  61  68 SE13      30.08F
$$
                *** MANITOBA***

CITY           SKY/WX    TMP DP  RH WIND       PRES   REMARKS
BRANDON        PTSUNNY   86  61  42 S18G25    29.86F
DAUPHIN        SUNNY     75  61  60 W8        29.86R
ISLAND LAKE    PTSUNNY   77  55  47 S15G21    29.97F
PILOT MOUND    NOT AVBL
THE PAS        MOSUNNY   73  57  56 S12       29.76R
THOMPSON       LGT RAIN  68  59  73 VRB3      29.87F
WINNIPEG       PTSUNNY   84  61  45 S23G30    29.92F
LYNN LAKE      CLOUDY    64  57  77 MISG      29.73F
CHURCHILL      PTSUNNY   66  54  63 SE18      29.99S
GILLAM         PTSUNNY   77  54  44 S13G20    29.93S
$$
                ***SASKATCHEWAN***

CITY           SKY/WX    TMP DP  RH WIND       PRES   REMARKS
ESTEVAN        MOSUNNY   84  52  32 NW13G18   29.93R
KINDERSLEY     PTSUNNY   57  43  58 W15G22    30.07R
LLOYDMINSTER   CLOUDY    52  43  71 NW13G26   30.04R
PRINCE ALBERT  PTSUNNY   64  52  63 NW16G22   29.86R
REGINA         MOSUNNY   77  52  41 W17G24    29.96R
YORKTON        SUNNY     72  59  64 W8        29.90R   C1F1C2F2C3F3C4F4C5F5C6F6C7F7C8F8C9F9CaFaCbFbCcFcCdFdCe!



USA.gov is the U.S. government's official web portal to all federal, state and local government web resources and services.